timestamp,wind_dir_avg,wind_spd_avg,wind_spd_max_dir,wind_spd_gust,battery_voltage,lat,long
2023-11-12 00:04:01+00:00,327.0,8.2,321.0,9.8,12.41,47.59359,-54.27349
2023-11-12 00:14:01+00:00,331.0,7.98,321.0,9.14,12.41,47.59359,-54.27349
2023-11-12 00:24:01+00:00,330.0,8.11,324.0,10.18,12.41,47.59359,-54.27349
2023-11-12 00:34:01+00:00,329.0,8.2,323.0,9.74,12.41,47.59359,-54.27349
2023-11-12 00:44:01+00:00,346.0,8.43,3.0,9.65,12.41,47.59359,-54.27349
2023-11-12 00:54:01+00:00,332.0,8.39,326.0,10.56,12.41,47.59359,-54.27349
2023-11-12 01:04:01+00:00,333.0,7.51,330.0,8.57,12.41,47.59359,-54.27349
2023-11-12 01:14:00+00:00,338.0,7.9,335.0,9.76,12.41,47.59359,-54.27349
2023-11-12 01:24:00+00:00,341.0,7.43,339.0,9.19,12.41,47.59359,-54.27349
2023-11-12 01:34:00+00:00,336.0,6.81,335.0,8.95,12.41,47.59359,-54.27349
2023-11-12 01:44:00+00:00,347.0,6.62,339.0,8.01,12.41,47.59359,-54.27349
2023-11-12 01:54:00+00:00,345.0,7.51,5.0,9.11,12.41,47.59359,-54.27349
2023-11-12 02:04:00+00:00,344.0,8.45,7.0,10.42,12.41,47.59359,-54.27349
2023-11-12 02:14:01+00:00,337.0,8.14,337.0,9.78,12.33,47.59359,-54.27349
2023-11-12 02:24:01+00:00,333.0,7.89,331.0,8.85,12.33,47.59359,-54.27349
2023-11-12 02:34:01+00:00,340.0,7.77,330.0,8.61,12.33,47.59359,-54.27349
2023-11-12 02:44:01+00:00,330.0,7.33,331.0,9.0,12.33,47.59359,-54.27349
2023-11-12 02:54:01+00:00,356.0,8.51,2.0,10.07,12.33,47.59359,-54.27349
2023-11-12 03:04:01+00:00,349.0,7.9,334.0,9.7,12.33,47.59359,-54.27349
2023-11-12 03:14:01+00:00,344.0,9.63,353.0,11.53,12.33,47.59359,-54.27349
2023-11-12 03:24:01+00:00,339.0,8.36,339.0,10.83,12.33,47.59359,-54.27349
2023-11-12 03:34:01+00:00,334.0,8.5,333.0,9.19,12.33,47.59359,-54.27349
2023-11-12 03:44:01+00:00,353.0,8.06,357.0,9.18,12.33,47.59359,-54.27349
2023-11-12 03:54:01+00:00,352.0,7.61,341.0,8.99,12.33,47.59359,-54.27349
2023-11-12 04:04:01+00:00,343.0,10.1,333.0,13.7,12.33,47.59359,-54.27349
2023-11-12 04:14:00+00:00,346.0,8.61,8.0,10.32,12.33,47.59359,-54.27349
2023-11-12 04:24:00+00:00,352.0,8.0,338.0,9.41,12.33,47.59359,-54.27349
2023-11-12 04:34:00+00:00,352.0,7.6,345.0,8.43,12.33,47.59359,-54.27349
2023-11-12 04:44:00+00:00,352.0,7.54,4.0,8.46,12.33,47.59359,-54.27349
2023-11-12 04:54:00+00:00,357.0,8.41,340.0,9.9,12.33,47.59359,-54.27349
2023-11-12 05:04:00+00:00,355.0,8.16,358.0,9.49,12.33,47.59359,-54.27349
2023-11-12 05:14:00+00:00,349.0,8.49,5.0,10.13,12.33,47.59359,-54.27349
2023-11-12 05:24:00+00:00,0.0,9.6,8.0,12.25,12.33,47.59359,-54.27349
2023-11-12 05:34:00+00:00,357.0,7.85,340.0,8.95,12.33,47.59359,-54.27349
2023-11-12 05:44:00+00:00,0.0,8.08,353.0,9.78,12.33,47.59359,-54.27349
2023-11-12 05:54:00+00:00,0.0,7.93,6.0,10.41,12.33,47.59359,-54.27349
2023-11-12 06:04:00+00:00,351.0,7.59,7.0,10.02,12.33,47.59359,-54.27349
2023-11-12 06:14:01+00:00,353.0,7.37,345.0,8.83,12.25,47.59359,-54.27349
2023-11-12 06:24:01+00:00,354.0,7.82,4.0,8.9,12.25,47.59359,-54.27349
2023-11-12 06:34:01+00:00,358.0,7.29,8.0,9.13,12.25,47.59359,-54.27349
2023-11-12 06:44:01+00:00,358.0,7.08,5.0,8.21,12.25,47.59359,-54.27349
2023-11-12 06:54:01+00:00,350.0,6.78,334.0,8.21,12.25,47.59359,-54.27349
2023-11-12 07:04:01+00:00,1.0,7.15,11.0,8.13,12.25,47.59359,-54.27349
2023-11-12 07:14:00+00:00,356.0,7.92,7.0,9.2,12.25,47.59359,-54.27349
2023-11-12 07:24:00+00:00,357.0,7.47,3.0,8.35,12.25,47.59359,-54.27349
2023-11-12 07:34:00+00:00,8.0,7.86,14.0,8.86,12.25,47.59359,-54.27349
2023-11-12 07:44:00+00:00,3.0,7.28,355.0,8.5,12.25,47.59359,-54.27349
2023-11-12 07:54:00+00:00,341.0,6.93,333.0,8.42,12.25,47.59359,-54.27349
2023-11-12 08:04:00+00:00,5.0,7.21,14.0,8.32,12.25,47.59359,-54.27349
2023-11-12 08:14:01+00:00,7.0,7.28,11.0,8.63,12.25,47.59359,-54.27349
2023-11-12 08:24:01+00:00,1.0,6.92,342.0,8.78,12.25,47.59359,-54.27349
2023-11-12 08:34:01+00:00,358.0,7.75,343.0,9.06,12.25,47.59359,-54.27349
2023-11-12 08:44:01+00:00,3.0,7.42,15.0,8.68,12.25,47.59359,-54.27349
2023-11-12 08:54:01+00:00,6.0,6.39,6.0,7.62,12.25,47.59359,-54.27349
2023-11-12 09:04:01+00:00,0.0,7.15,359.0,8.43,12.25,47.59359,-54.27349
2023-11-12 09:14:00+00:00,357.0,7.1,11.0,8.24,12.25,47.59359,-54.27349
2023-11-12 09:24:00+00:00,2.0,7.09,17.0,7.98,12.25,47.59359,-54.27349
2023-11-12 09:34:00+00:00,10.0,7.23,15.0,8.26,12.25,47.59359,-54.27349
2023-11-12 09:44:00+00:00,3.0,6.8,357.0,7.61,12.25,47.59359,-54.27349
2023-11-12 09:54:00+00:00,5.0,6.31,15.0,7.53,12.25,47.59359,-54.27349
2023-11-12 10:04:00+00:00,9.0,6.57,14.0,7.63,12.25,47.59359,-54.27349
2023-11-12 10:14:00+00:00,1.0,7.61,13.0,8.71,12.25,47.59359,-54.27349
2023-11-12 10:24:00+00:00,4.0,6.44,15.0,8.32,12.25,47.59359,-54.27349
2023-11-12 10:34:00+00:00,2.0,6.83,340.0,8.48,12.25,47.59359,-54.27349
2023-11-12 10:44:00+00:00,359.0,6.85,13.0,8.33,12.25,47.59359,-54.27349
2023-11-12 10:54:00+00:00,357.0,5.86,11.0,6.92,12.25,47.59359,-54.27349
2023-11-12 11:04:00+00:00,340.0,7.79,338.0,9.24,12.25,47.59359,-54.27349
2023-11-12 11:14:00+00:00,5.0,5.83,9.0,7.63,12.25,47.59359,-54.27349
2023-11-12 11:24:00+00:00,357.0,6.16,332.0,7.89,12.25,47.59359,-54.27349
2023-11-12 11:34:00+00:00,349.0,5.86,326.0,7.22,12.25,47.59359,-54.27349
2023-11-12 11:44:00+00:00,323.0,6.56,310.0,7.56,12.25,47.59359,-54.27349
2023-11-12 11:54:00+00:00,322.0,6.7,321.0,7.26,12.25,47.59359,-54.27349
2023-11-12 12:04:00+00:00,327.0,6.23,326.0,7.58,12.25,47.59359,-54.27349
2023-11-12 12:14:01+00:00,332.0,6.11,324.0,7.19,14.24,47.59359,-54.27349
2023-11-12 12:24:01+00:00,324.0,7.92,327.0,8.92,14.24,47.59359,-54.27349
2023-11-12 12:34:01+00:00,355.0,6.0,333.0,7.39,14.24,47.59359,-54.27349
2023-11-12 12:44:01+00:00,346.0,6.0,331.0,7.23,14.24,47.59359,-54.27349
2023-11-12 12:54:01+00:00,329.0,5.89,341.0,7.4,14.24,47.59359,-54.27349
2023-11-12 13:04:01+00:00,2.0,7.47,348.0,8.88,14.24,47.59359,-54.27349
2023-11-12 13:14:00+00:00,343.0,7.15,327.0,9.25,14.0,47.59359,-54.27349
2023-11-12 13:24:00+00:00,352.0,5.9,332.0,7.4,14.0,47.59359,-54.27349
2023-11-12 13:34:00+00:00,5.0,6.25,17.0,7.18,14.0,47.59359,-54.27349
2023-11-12 13:44:00+00:00,359.0,6.27,14.0,7.85,14.0,47.59359,-54.27349
2023-11-12 13:54:00+00:00,6.0,8.06,14.0,9.3,14.0,47.59359,-54.27349
2023-11-12 14:04:00+00:00,350.0,5.84,334.0,7.19,14.0,47.59359,-54.27349
2023-11-12 14:14:00+00:00,326.0,7.41,330.0,8.3,13.68,47.59359,-54.27349
2023-11-12 14:24:00+00:00,0.0,6.05,17.0,7.07,13.68,47.59359,-54.27349
2023-11-12 14:34:00+00:00,323.0,6.66,327.0,8.04,13.68,47.59359,-54.27349
2023-11-12 14:44:00+00:00,321.0,6.84,319.0,8.17,13.68,47.59359,-54.27349
2023-11-12 14:54:00+00:00,346.0,7.69,343.0,8.91,13.68,47.59359,-54.27349
2023-11-12 15:04:00+00:00,340.0,6.52,333.0,8.36,13.68,47.59359,-54.27349
2023-11-12 15:14:00+00:00,319.0,7.15,312.0,8.49,13.68,47.59359,-54.27349
2023-11-12 15:24:00+00:00,1.0,6.41,12.0,7.64,13.68,47.59359,-54.27349
2023-11-12 15:34:00+00:00,343.0,7.34,337.0,8.8,13.68,47.59359,-54.27349
2023-11-12 15:44:00+00:00,347.0,6.32,335.0,7.09,13.68,47.59359,-54.27349
2023-11-12 15:54:00+00:00,315.0,7.84,302.0,11.0,13.68,47.59359,-54.27349
2023-11-12 16:04:00+00:00,331.0,8.19,327.0,9.57,13.68,47.59359,-54.27349
2023-11-12 16:14:01+00:00,341.0,9.12,339.0,10.12,13.76,47.59359,-54.27349
2023-11-12 16:24:01+00:00,328.0,7.73,329.0,8.82,13.76,47.59359,-54.27349
2023-11-12 16:34:01+00:00,336.0,8.28,338.0,8.9,13.76,47.59359,-54.27349
2023-11-12 16:44:01+00:00,1.0,7.17,16.0,8.02,13.76,47.59359,-54.27349
2023-11-12 16:54:01+00:00,325.0,7.24,319.0,8.48,13.76,47.59359,-54.27349
2023-11-12 17:04:01+00:00,340.0,7.73,333.0,9.62,13.76,47.59359,-54.27349
2023-11-12 17:14:00+00:00,320.0,6.33,330.0,7.13,14.16,47.59359,-54.27349
2023-11-12 17:24:00+00:00,331.0,7.02,333.0,8.71,14.16,47.59359,-54.27349
2023-11-12 17:34:00+00:00,350.0,6.78,332.0,9.31,14.16,47.59359,-54.27349
2023-11-12 17:44:00+00:00,346.0,6.44,330.0,8.47,14.16,47.59359,-54.27349
2023-11-12 17:54:00+00:00,0.0,6.07,357.0,7.63,14.16,47.59359,-54.27349
2023-11-12 18:04:00+00:00,1.0,6.42,14.0,7.91,14.16,47.59359,-54.27349
2023-11-12 18:14:00+00:00,1.0,8.56,9.0,10.56,14.0,47.59359,-54.27349
2023-11-12 18:24:00+00:00,4.0,7.32,11.0,9.47,14.0,47.59359,-54.27349
2023-11-12 18:34:00+00:00,356.0,8.73,5.0,9.78,14.0,47.59359,-54.27349
2023-11-12 18:44:00+00:00,337.0,7.47,333.0,9.33,14.0,47.59359,-54.27349
2023-11-12 18:54:00+00:00,344.0,6.31,335.0,9.16,14.0,47.59359,-54.27349
2023-11-12 19:04:00+00:00,328.0,7.28,328.0,8.59,14.0,47.59359,-54.27349
2023-11-12 19:14:00+00:00,339.0,7.3,337.0,8.71,13.29,47.59359,-54.27349
2023-11-12 19:24:00+00:00,353.0,7.71,354.0,9.06,13.29,47.59359,-54.27349
2023-11-12 19:34:00+00:00,356.0,6.43,1.0,7.85,13.29,47.59359,-54.27349
2023-11-12 19:44:00+00:00,341.0,8.39,339.0,9.77,13.29,47.59359,-54.27349
2023-11-12 19:54:00+00:00,318.0,7.5,305.0,9.96,13.29,47.59359,-54.27349
2023-11-12 20:04:00+00:00,328.0,7.64,333.0,8.75,13.29,47.59359,-54.27349
2023-11-12 20:14:00+00:00,353.0,6.93,12.0,9.27,12.65,47.59359,-54.27349
2023-11-12 20:24:00+00:00,338.0,8.29,340.0,9.69,12.65,47.59359,-54.27349
2023-11-12 20:34:00+00:00,349.0,4.95,339.0,6.06,12.65,47.59359,-54.27349
2023-11-12 20:44:00+00:00,345.0,5.52,333.0,7.0,12.65,47.59359,-54.27349
2023-11-12 20:54:00+00:00,352.0,8.18,343.0,9.84,12.65,47.59359,-54.27349
2023-11-12 21:04:00+00:00,325.0,8.86,316.0,11.36,12.65,47.59359,-54.27349
2023-11-12 21:14:00+00:00,343.0,5.69,339.0,7.38,12.41,47.59359,-54.27349
2023-11-12 21:24:00+00:00,325.0,5.29,324.0,7.22,12.41,47.59359,-54.27349
2023-11-12 21:34:00+00:00,324.0,7.31,322.0,9.77,12.41,47.59359,-54.27349
2023-11-12 21:44:00+00:00,321.0,6.89,311.0,8.68,12.41,47.59359,-54.27349
2023-11-12 21:54:00+00:00,327.0,7.93,322.0,9.71,12.41,47.59359,-54.27349
2023-11-12 22:04:00+00:00,318.0,7.03,324.0,9.25,12.41,47.59359,-54.27349
2023-11-12 22:14:00+00:00,329.0,8.2,336.0,10.01,12.41,47.59359,-54.27349
2023-11-12 22:24:00+00:00,358.0,7.13,354.0,9.11,12.41,47.59359,-54.27349
2023-11-12 22:34:00+00:00,341.0,8.97,343.0,10.64,12.41,47.59359,-54.27349
2023-11-12 22:44:00+00:00,338.0,8.7,338.0,9.72,12.41,47.59359,-54.27349
2023-11-12 22:54:00+00:00,332.0,5.8,324.0,7.14,12.41,47.59359,-54.27349
2023-11-12 23:04:00+00:00,324.0,7.23,325.0,8.67,12.41,47.59359,-54.27349
2023-11-12 23:14:00+00:00,336.0,8.54,340.0,9.63,12.41,47.59359,-54.27349
2023-11-12 23:24:00+00:00,328.0,7.4,331.0,9.07,12.41,47.59359,-54.27349
2023-11-12 23:34:00+00:00,359.0,6.14,7.0,7.54,12.41,47.59359,-54.27349
2023-11-12 23:44:00+00:00,351.0,5.72,354.0,6.93,12.41,47.59359,-54.27349
2023-11-12 23:54:00+00:00,354.0,5.28,4.0,6.95,12.41,47.59359,-54.27349
